Location: Beuvrequen
(50.8014°N, 1.6652°E)
Time: 22:14:13
(UTC+00:00)

Cosmos 1697 Rocket - Pass Details

Date: 16 October 2021
Orbit: 834 x 842 km, 71.0° (Epoch: 04 December)

Event Time Altitude Azimuth Distance (km) Brightness Sun altitude
Rises 17:34:22 0° 188° (S) 3,385 6.0 -6.4°
Reaches altitude 10° 17:36:52 10° 183° (S) 2,454 5.2 -6.8°
Maximum altitude 17:42:14 47° 110° (ESE) 1,099 3.0 -7.6°
Drops below altitude 10° 17:47:38 10° 38° (NE) 2,467 4.7 -8.5°
Sets 17:50:09 0° 33° (NNE) 3,405 5.5 -8.9°
